#timestamp,LO_Frequency,Hit 
1502182815.4,286046883.9,N
1502182835.2,286046882.1,N
1502182855.0,286046879.9,N
1502182855.9,286046879.9,N
1502182875.8,286046880.4,N
1502182895.6,286046882.1,N
1502182915.4,286046883.8,N
1502182935.3,286046885.9,N
1502182955.1,286046882.3,N
1502182956.0,286046882.3,N
1502182975.8,286046881.7,N
1502182995.7,286046884.4,N
1502183015.5,286046884.4,N
1502183035.4,286046883.7,N
1502183055.2,286046879.8,N
1502183075.0,286046879.0,N
1502183075.9,286046879.0,N
1502183095.8,286046880.4,N
1502183115.6,286046882.3,N
1502183135.4,286046881.6,N
1502183155.2,286046881.0,N
1502183175.1,286046876.5,N
1502183176.0,286046876.5,N
1502183195.8,286046881.2,N
1502183215.6,286046881.1,N
1502183235.5,286046879.9,N
1502183255.3,286046880.1,N
1502183275.1,286046881.2,N
1502183295.9,286046880.3,N
1502183315.7,286046878.3,N
1502183335.5,286046879.5,N
1502183355.4,286046879.6,N
1502183375.2,286046877.4,N
1502183395.0,286046879.3,N
1502183395.9,286046879.3,N
1502183415.7,286046878.4,N
1502183435.6,286046877.0,N
1502183455.4,286046877.4,N
1502183475.2,286046873.3,N
1502183495.1,286046873.3,N
1502183496.0,286046873.3,N
1502183515.8,286046875.0,N
1502183535.6,286046875.1,N
1502183555.5,286046874.1,N
1502183575.3,286046874.4,N
1502183595.1,286046875.9,N
1502183615.9,286046873.9,N
1502183635.7,286046876.1,N
1502183655.5,286046873.3,N
1502183675.4,286046874.2,N
1502183695.8,286046870.2,N
1502183715.6,286046870.9,N
1502183735.4,286046872.1,N
1502183755.3,286046872.0,N
1502183775.1,286046872.3,N
1502183776.0,286046872.3,N
1502183795.8,286046873.2,N
1502183815.7,286046871.0,N
1502183835.5,286046870.6,N
1502183855.3,286046869.6,N
1502183875.2,286046866.9,N
1502183895.9,286046867.2,N
1502183915.7,286046867.0,N
1502183935.5,286046868.6,N
1502183955.4,286046868.5,N
1502183975.2,286046869.7,N
1502183995.0,286046868.7,N
1502183995.9,286046868.7,N
1502184015.8,286046869.8,N
1502184035.6,286046869.5,N
1502184055.4,286046867.4,N
1502184075.3,286046865.7,N
1502184095.1,286046868.1,N
1502184096.0,286046868.1,N
1502184115.8,286046866.9,N
1502184135.7,286046867.3,N
1502184155.5,286046867.9,N
1502184175.3,286046865.5,N
1502184195.1,286046863.8,N
1502184215.9,286046866.6,N
1502184235.7,286046864.0,N
1502184255.5,286046862.5,N
1502184275.4,286046864.0,N
1502184295.2,286046864.3,N
1502184315.0,286046862.2,N
1502184315.9,286046862.2,N
1502184335.8,286046865.2,N
1502184355.6,286046863.9,N
1502184375.4,286046864.1,N
1502184395.3,286046866.8,N
1502184415.1,286046866.5,N
1502184416.0,286046866.5,N
1502184435.8,286046864.5,N
1502184455.7,286046864.1,N
1502184475.5,286046865.1,N
1502184495.3,286046862.4,N
1502184515.1,286046863.2,N
1502184535.9,286046863.2,N
1502184555.7,286046861.4,N
1502184575.5,286046863.2,N
1502184595.4,286046860.8,N
1502184615.2,286046860.7,N
1502184635.0,286046862.0,N
1502184635.9,286046862.0,N
1502184655.8,286046860.7,N
1502184675.6,286046863.2,N
1502184695.4,286046861.4,N
1502184715.3,286046860.1,N
1502184735.1,286046860.3,N
1502184736.0,286046860.3,N
1502184755.8,286046856.2,N
1502184775.6,286046856.1,N
1502184795.5,286046858.1,N
1502184815.3,286046860.2,N
1502184835.1,286046857.8,N
1502184855.9,286046860.1,N
1502184875.7,286046857.4,N
1502184895.6,286046858.8,N
1502184915.4,286046855.7,N
1502184935.2,286046858.2,N
1502184955.1,286046857.4,N
1502184956.0,286046857.4,N
1502184975.8,286046858.7,N
1502184995.6,286046855.0,N
1502185015.5,286046852.7,N
1502185035.3,286046855.0,N
1502185055.1,286046854.2,N
1502185075.8,286046856.7,N
1502185095.7,286046854.1,N
1502185115.5,286046854.5,N
1502185135.3,286046854.8,N
1502185155.2,286046854.9,N
1502185175.9,286046853.2,N
1502185195.7,286046852.1,N
1502185215.6,286046852.1,N
1502185235.4,286046851.2,N
1502185255.2,286046851.7,N
1502185275.1,286046852.1,N
1502185276.0,286046852.1,N
1502185295.5,286046849.8,N
1502185315.3,286046851.9,N
1502185335.1,286046851.8,N
1502185355.9,286046850.2,N
1502185375.7,286046849.9,N
1502185395.5,286046852.3,N
1502185415.4,286046849.9,N
1502185435.2,286046850.1,N
1502185455.0,286046850.6,N
1502185455.9,286046850.6,N
1502185475.8,286046848.1,N
1502185495.6,286046847.9,N
1502185515.4,286046850.7,N
1502185535.2,286046850.4,N
1502185555.1,286046849.2,N
1502185556.0,286046849.2,N
1502185575.8,286046848.7,N
1502185595.6,286046849.1,N
1502185615.5,286046847.6,N
1502185635.3,286046849.2,N
1502185655.1,286046847.0,N
1502185675.9,286046847.3,N
1502185695.7,286046846.0,N
1502185715.5,286046845.8,N
1502185735.4,286046843.3,N
1502185755.2,286046845.2,N
1502185775.0,286046844.5,N
1502185775.9,286046844.5,N
1502185795.8,286046842.9,N
1502185815.6,286046845.4,N
1502185835.4,286046844.9,N
1502185855.3,286046845.1,N
1502185875.1,286046847.2,N
1502185876.0,286046847.2,N
1502185895.8,286046845.9,N
1502185915.6,286046843.8,N
1502185935.5,286046839.9,N
1502185955.3,286046841.0,N
1502185975.1,286046840.4,N
1502185995.9,286046840.9,N
1502186015.7,286046842.2,N
1502186035.5,286046842.7,N
1502186055.4,286046838.7,N
1502186075.2,286046838.1,N
1502186095.0,286046841.2,N
1502186095.9,286046841.2,N
1502186115.8,286046838.5,N
1502186135.6,286046838.6,N
1502186155.4,286046840.9,N
1502186175.3,286046840.9,N
1502186195.1,286046838.9,N
1502186196.0,286046838.9,N
1502186215.8,286046837.8,N
1502186235.6,286046837.5,N
1502186255.5,286046837.3,N
1502186275.3,286046835.0,N
1502186295.1,286046837.5,N
1502186315.9,286046837.6,N
1502186335.7,286046837.1,N
1502186355.5,286046837.4,N
1502186375.4,286046837.9,N
1502186395.2,286046835.5,N
